Weather in Pobednoye

Russia / Oryol Oblast     53°00′56″N   36°39′37″E
temp.,
°C
wind,
m/s
gust,
m/s
humid.,
%
clouds,
%
prec.,
mm/h
press.,
hPa
HPBL,
m
15 june, tue
tue1500:00+17nne128714 0.0 101511
03:00+16n22915 0.0 101514
06:00+17n22885 0.1 101559
09:00+21nne22789 0.4 1014313
12:00+24n236266 1.3 10131150
15:00+24n226298 1.3 10121410
18:00+24nnw23735 0.0 1011876
21:00+18nnw228482 1.6 101111
16 june, wed
wed1600:00+17nnw228599 0.4 101111
03:00+16nnw229166 0.4 101126
06:00+16nnw2594100 0.0 1011150
09:00+20n468352 0.0 1012494
12:00+23n557122 0.0 10131233
15:00+23nne566730 0.1 10131409
18:00+22nne47750 0.0 1014801
21:00+18nne36890 0.0 101692
17 june, thu
thu1700:00+16nne37920 0.0 1018124
03:00+14ne310930 0.0 1019223
06:00+14ne411850 0.0 1021270
09:00+18ene59660 0.0 1022525
12:00+20ne67590 0.0 10231174
15:00+21ne56590 0.0 10231303
18:00+20ne57740 0.0 1024969
21:00+15ne38895 0.0 1025136
18 june, fri
fri1800:00+13ene35870 0.0 102676
03:00+12ene37855 0.0 1026120
06:00+14e37865 0.0 1027171
09:00+18e47700 0.0 1028518
12:00+21e56620 0.0 10281093
15:00+22e45610 0.0 10271389
18:00+21e35720 0.0 1027913
21:00+16e34856 0.0 102856
19 june, sat
sat1900:00+14se33895 0.0 102845
03:00+13ese22901 0.0 102921
06:00+14ese24885 0.0 1029115
09:00+19ese45730 0.0 1029475
12:00+22se34640 0.0 10281198
15:00+23se34601 0.0 10271599
18:00+23se33700 0.0 1026744
21:00+18se22820 0.0 102612